Flag for Uzbekistan Weather past 2 weeks in Tashkent, Uzbekistan

Now
91 °F

Sunny.


Feels Like: 87 °F
Forecast: 69 / 93 °F
Wind: 6 mph from Southwest

Location: Tashkent

Current Time: Aug 1, 2014 at 6:42:39 PM

Latest Report: Aug 1, 2014 at 6:00 PM


Visibility: 10 mi

Pressure: 29.77 "Hg

Humidity: 13%

Dew point: 34 °F

Location of TashkentLocation

Historic Weather in Tashkent — Graph

°F

Tashkent temperature yesterday

Maximum temperature yesterday: 90 °F (at 3:00 PM)
Minimum temperature yesterday: 59 °F (at 4:00 AM)
Average temperature yesterday: 76 °F

Past Weeks' High & Low Weather Summary

 TemperatureHumidityPressure
High102 °F (Jul 27, 3:30 PM)47% (Jul 23, 7:00 AM)29.95 "Hg (Jul 23, 7:00 AM)
Low59 °F (Jul 31, 4:00 AM)8% (Jul 24, 5:00 PM)29.62 "Hg (Jul 19, 5:00 PM)
Average82 °F22%29.75 "Hg
* Reported Jul 17 5:00 PM — Aug 1 5:00 PM, Tashkent, Weather by CustomWeather, © 2014

Note: Actual official high and low records may vary slightly from our data, if they occured in-between our weather recording intervals... More about our weather records

Advertising

Tashkent weather history for previous 24 hours

 ConditionsComfort  
Time TempWeatherWind HumidityBarometerVisibility
5:00 PM
Aug 1
91 °FPassing clouds.6 mph13%29.77 "HgN/A
4:30 PM91 °FPassing clouds.6 mph13%29.77 "HgN/A
4:00 PM91 °FPassing clouds.8 mph13%29.77 "HgN/A
3:30 PM91 °FPassing clouds.8 mph16%29.77 "HgN/A
3:00 PM91 °FSunny.6 mph14%29.80 "Hg10 mi
2:30 PM91 °FSunny.6 mph14%29.80 "Hg10 mi
2:00 PM90 °FSunny.3 mph15%29.80 "Hg10 mi
1:30 PM90 °FSunny.6 mph15%29.80 "Hg10 mi
1:00 PM88 °FSunny.3 mph19%29.80 "Hg10 mi
12:30 PM88 °FSunny.6 mph19%29.83 "Hg10 mi
12:00 PM86 °FPassing clouds.6 mph20%29.83 "HgN/A
11:30 AM84 °FPassing clouds.6 mph20%29.83 "HgN/A
11:00 AM84 °FClear.6 mph22%29.83 "Hg4 mi
10:30 AM82 °FClear.6 mph23%29.83 "Hg4 mi
10:00 AM81 °FClear.6 mph28%29.83 "Hg4 mi
9:30 AM79 °FClear.8 mph30%29.83 "Hg4 mi
9:00 AM77 °FSunny.8 mph30%29.83 "Hg10 mi
8:30 AM77 °FPassing clouds.6 mph30%29.83 "HgN/A
8:00 AM75 °FSunny.6 mph29%29.83 "Hg10 mi
7:30 AM73 °FPassing clouds.3 mph31%29.83 "HgN/A
7:00 AM72 °FSunny.6 mph31%29.83 "Hg10 mi
6:30 AM66 °FSunny.8 mph37%29.83 "Hg10 mi
6:00 AM63 °FSunny.6 mph42%29.83 "Hg10 mi
5:30 AM63 °FSunny.8 mph42%29.83 "Hg10 mi
5:00 AM64 °FClear.3 mph40%29.83 "Hg10 mi
4:30 AM63 °FClear.6 mph42%29.80 "Hg10 mi
4:00 AM64 °FClear.6 mph40%29.80 "Hg10 mi
3:30 AM64 °FClear.8 mph40%29.80 "Hg10 mi
3:00 AM63 °FClear.6 mph45%29.80 "Hg10 mi
2:30 AM66 °FClear.6 mph43%29.80 "Hg10 mi
2:00 AM68 °FClear.6 mph40%29.80 "Hg10 mi
1:30 AM66 °FClear.3 mph46%29.80 "Hg10 mi
1:00 AM68 °FClear.3 mph40%29.80 "Hg10 mi
12:30 AM68 °FClear.3 mph43%29.80 "Hg10 mi
12:00 AM70 °FClear.3 mph40%29.80 "Hg10 mi
11:30 PM
Jul 31
70 °FClear.1 mph43%29.80 "Hg10 mi
11:00 PM70 °FClear.3 mph40%29.83 "Hg10 mi
10:30 PM72 °FClear.3 mph36%29.83 "Hg10 mi
10:00 PM73 °FClear.No wind29%29.83 "Hg10 mi
9:30 PM75 °FClear.3 mph29%29.83 "Hg10 mi
9:00 PM75 °FClear.3 mph27%29.83 "Hg10 mi
8:30 PM81 °FPassing clouds.3 mph16%29.83 "HgN/A
8:00 PM82 °FClear.3 mph13%29.83 "Hg10 mi
7:30 PM86 °FSunny.6 mph11%29.83 "Hg10 mi
7:00 PM88 °FSunny.8 mph10%29.83 "Hg10 mi
6:30 PM88 °FSunny.8 mph10%29.83 "Hg10 mi
6:00 PM90 °FPassing clouds.8 mph9%29.83 "HgN/A
Weather by CustomWeather, © 2014

See weather overviewHow to use our weather pages